W5MBG Weather Reports


time (UTC)temp
C
wind
direction
speed
KPH
gust
KPH
rain 1hr
cm
rain 24hr
cm
rain mn
cm
humidity
%
barometer
mb
20260506155503 17 356 6.4 16.1 0.08 0.15 0.15 94 1013.3
20260506155004 18 358 8.0 17.7 0.08 0.15 0.15 94 1013.2
20260506154506 18 342 8.0 17.7 0.08 0.15 0.15 93 1013.1
20260506154004 18 319 8.0 17.7 0.05 0.13 0.13 92 1013.2
20260506153503 19 311 6.4 22.5 0.00 0.08 0.08 90 1013.2
20260506153009 20 341 9.7 22.5 0.00 0.08 0.08 89 1013.2
20260506152502 22 335 3.2 6.4 0.00 0.08 0.08 94 1013.0
20260506152005 22 25 0.0 3.2 0.00 0.08 0.08 95 1012.9
20260506151526 22 131 0.0 1.6 0.00 0.08 0.08 95 1012.8
20260506151009 22 131 0.0 3.2 0.03 0.08 0.08 95 1012.7
20260506150507 22 136 1.6 3.2 0.03 0.08 0.08 95 1012.5
20260506150018 22 180 1.6 3.2 0.03 0.08 0.08 95 1012.4
20260506145510 22 158 0.0 1.6 0.03 0.08 0.08 96 1012.4
20260506145010 22 158 0.0 3.2 0.05 0.08 0.08 96 1012.3
20260506144502 21 130 0.0 3.2 0.05 0.08 0.08 96 1012.3
20260506144006 21 146 0.0 4.8 0.05 0.08 0.08 96 1012.3
20260506143504 21 113 3.2 4.8 0.05 0.08 0.08 96 1012.3
20260506143008 21 106 3.2 3.2 0.05 0.08 0.08 96 1012.3
20260506142505 21 126 0.0 3.2 0.05 0.08 0.08 96 1012.3
20260506142005 21 149 0.0 4.8 0.05 0.08 0.08 96 1012.3
20260506141511 21 112 1.6 4.8 0.08 0.08 0.08 96 1012.2
20260506141006 21 99 0.0 3.2 0.05 0.05 0.05 96 1012.3
20260506140504 21 102 0.0 1.6 0.05 0.05 0.05 96 1012.3
20260506140022 21 127 0.0 1.6 0.05 0.05 0.05 96 1012.3
20260506135507 21 127 0.0 3.2 0.05 0.05 0.05 96 1012.1
20260506135006 21 127 0.0 3.2 0.03 0.03 0.03 96 1012.1
20260506134522 21 6 0.0 3.2 0.03 0.03 0.03 96 1012.0
20260506134010 21 6 0.0 3.2 0.03 0.03 0.03 96 1011.8
20260506133507 21 134 0.0 3.2 0.03 0.03 0.03 96 1011.3
20260506133004 21 95 1.6 3.2 0.03 0.03 0.03 96 1010.9
20260506132501 21 124 0.0 6.4 0.03 0.03 0.03 96 1010.7
20260506132003 21 125 1.6 6.4 0.03 0.03 0.03 96 1010.7
20260506131516 21 109 1.6 3.2 0.00 0.00 0.00 96 1010.8
20260506131006 21 158 0.0 0.0 0.00 0.00 0.00 96 1010.7
20260506130503 21 158 0.0 0.0 0.00 0.00 0.00 96 1010.7
20260506130016 21 158 0.0 1.6 0.00 0.00 0.00 96 1010.7
20260506125505 21 158 0.0 3.2 0.00 0.00 0.00 96 1010.7
20260506125007 21 158 0.0 3.2 0.00 0.00 0.00 96 1010.7
20260506124519 21 238 0.0 3.2 0.00 0.00 0.00 96 1010.6
20260506124007 21 210 0.0 3.2 0.00 0.00 0.00 96 1010.6
20260506123507 21 157 1.6 4.8 0.00 0.00 0.00 96 1010.4
20260506123023 21 110 1.6 4.8 0.00 0.00 0.00 96 1010.3
20260506122507 21 135 1.6 6.4 0.00 0.00 0.00 96 1010.3
20260506122011 21 174 1.6 6.4 0.00 0.00 0.00 96 1010.3
20260506121504 21 155 0.0 4.8 0.00 0.00 0.00 96 1010.2
20260506121004 21 191 0.0 6.4 0.00 0.00 0.00 96 1010.2
20260506120503 21 154 1.6 6.4 0.00 0.00 0.00 96 1010.2
20260506120018 21 146 0.0 4.8 0.00 0.00 0.00 96 1010.2
20260506115503 21 146 0.0 4.8 0.00 0.00 0.00 96 1010.2
20260506115006 21 140 1.6 4.8 0.00 0.00 0.00 96 1010.2
20260506114515 21 184 0.0 4.8 0.00 0.00 0.00 95 1010.3
20260506114007 21 188 0.0 4.8 0.00 0.00 0.00 95 1010.4
20260506113508 21 148 1.6 3.2 0.00 0.00 0.00 95 1010.4
20260506113024 21 244 0.0 6.4 0.00 0.00 0.00 95 1010.4
20260506112509 21 165 1.6 6.4 0.00 0.00 0.00 95 1010.3
20260506112008 21 226 1.6 6.4 0.00 0.00 0.00 95 1010.3
20260506111526 21 160 1.6 4.8 0.00 0.00 0.00 95 1010.4
20260506111007 21 169 1.6 6.4 0.00 0.00 0.00 95 1010.4
20260506110513 21 162 1.6 8.0 0.00 0.00 0.00 95 1010.4
20260506110012 21 167 3.2 9.7 0.00 0.00 0.00 95 1010.2
20260506105503 21 205 1.6 11.3 0.00 0.00 0.00 95 1010.2
20260506105007 21 160 4.8 11.3 0.00 0.00 0.00 95 1010.4
20260506104512 21 238 3.2 9.7 0.00 0.00 0.00 95 1010.5
20260506104007 21 244 0.0 8.0 0.00 0.00 0.00 95 1010.7
20260506103506 21 178 3.2 8.0 0.00 0.00 0.00 95 1010.7
20260506103018 21 199 3.2 8.0 0.00 0.00 0.00 95 1010.6
20260506102508 21 238 1.6 8.0 0.00 0.00 0.00 95 1010.6
20260506102009 21 170 1.6 6.4 0.00 0.00 0.00 95 1010.6
20260506101528 21 295 0.0 9.7 0.00 0.00 0.00 95 1010.5
20260506101010 21 146 3.2 9.7 0.00 0.00 0.00 95 1010.4
20260506100507 21 133 1.6 9.7 0.00 0.00 0.00 95 1010.3
20260506100031 21 240 1.6 9.7 0.00 0.00 0.00 95 1010.2
20260506095507 21 211 1.6 8.0 0.00 0.00 0.00 95 1010.2
20260506095011 21 234 0.0 6.4 0.00 0.00 0.00 95 1010.2
20260506094508 21 247 3.2 9.7 0.00 0.00 0.00 95 1010.2
20260506094003 21 157 1.6 9.7 0.00 0.00 0.00 95 1010.3
20260506093507 21 231 1.6 14.5 0.00 0.00 0.00 95 1010.2
20260506093018 21 212 3.2 14.5 0.00 0.00 0.00 95 1010.2
20260506092509 21 103 4.8 14.5 0.00 0.00 0.00 95 1010.2
20260506092007 21 122 1.6 8.0 0.00 0.00 0.00 95 1010.1
20260506091519 21 141 1.6 8.0 0.00 0.00 0.00 95 1010.1
20260506091007 21 246 1.6 9.7 0.00 0.00 0.00 94 1010.1
20260506090506 21 110 3.2 11.3 0.00 0.00 0.00 94 1010.1
20260506090021 21 195 3.2 11.3 0.00 0.00 0.00 94 1010.0
20260506085507 21 110 3.2 12.9 0.00 0.00 0.00 94 1009.9
20260506085007 21 145 6.4 12.9 0.00 0.00 0.00 94 1009.8
20260506084535 21 41 4.8 12.9 0.00 0.00 0.00 94 1009.7
20260506084010 21 120 4.8 9.7 0.00 0.00 0.00 94 1009.7
20260506083514 21 155 1.6 9.7 0.00 0.00 0.00 94 1009.8
20260506083013 21 164 4.8 9.7 0.00 0.00 0.00 94 1009.8
20260506082505 21 175 4.8 12.9 0.00 0.00 0.00 93 1009.7
20260506082003 21 223 4.8 12.9 0.00 0.00 0.00 93 1009.7
20260506081517 21 166 3.2 11.3 0.00 0.00 0.00 93 1009.8
20260506081010 21 188 3.2 11.3 0.00 0.00 0.00 93 1009.8
20260506080508 22 143 3.2 9.7 0.00 0.00 0.00 93 1009.9
20260506073511 22 50 4.8 11.3 0.00 0.00 0.00 92 1010.0
20260506073026 22 111 4.8 14.5 0.00 0.00 0.00 92 1010.1
20260506072512 22 154 4.8 14.5 0.00 0.00 0.00 92 1010.2
20260506072012 22 145 4.8 12.9 0.00 0.00 0.00 92 1010.2
20260506071514 22 120 3.2 12.9 0.00 0.00 0.00 92 1010.2
20260506071007 22 65 4.8 14.5 0.00 0.00 0.00 92 1010.2
20260506070506 22 145 4.8 14.5 0.00 0.00 0.00 92 1010.2
20260506062509 22 174 3.2 14.5 0.00 0.00 0.00 92 1010.5
20260506062012 22 221 3.2 14.5 0.00 0.00 0.00 92 1010.4
20260506061529 22 185 4.8 11.3 0.00 0.00 0.00 92 1010.4
20260506061011 22 131 4.8 9.7 0.00 0.00 0.00 92 1010.3
20260506060510 22 162 3.2 9.7 0.00 0.00 0.00 92 1010.3
20260506051011 22 156 3.2 9.7 0.00 0.00 0.00 91 1010.3
20260506050515 22 139 3.2 9.7 0.00 0.00 0.00 91 1010.4
20260506045013 22 121 0.0 4.8 0.00 0.00 0.00 90 1010.5
20260506044519 22 252 0.0 3.2 0.00 0.00 0.00 90 1010.5
20260506044007 22 87 0.0 3.2 0.00 0.00 0.00 90 1010.6
20260506043509 22 85 0.0 3.2 0.00 0.00 0.00 90 1010.6
20260506043024 22 142 0.0 3.2 0.00 0.00 0.00 90 1010.5
20260506042506 22 185 0.0 3.2 0.00 0.00 0.00 89 1010.5
20260506042010 22 94 0.0 3.2 0.00 0.00 0.00 89 1010.5
20260506041525 22 108 0.0 3.2 0.00 0.00 0.00 89 1010.3
20260506041009 22 122 0.0 3.2 0.00 0.00 0.00 88 1010.3
20260506040509 22 136 0.0 3.2 0.00 0.00 0.00 88 1010.2
20260506040036 22 117 0.0 3.2 0.00 0.00 0.00 87 1010.1
20260506035509 22 147 0.0 3.2 0.00 0.00 0.00 87 1010.2
20260506035010 22 181 0.0 3.2 0.00 0.00 0.00 87 1010.2
20260506034529 22 143 0.0 3.2 0.00 0.00 0.00 87 1010.1
20260506034011 22 129 0.0 3.2 0.00 0.00 0.00 86 1010.1
20260506033509 22 111 0.0 1.6 0.00 0.00 0.00 85 1010.1
20260506033020 23 111 0.0 3.2 0.00 0.00 0.00 85 1010.0
20260506032505 23 110 0.0 3.2 0.00 0.00 0.00 85 1009.9
20260506032007 23 113 0.0 6.4 0.00 0.00 0.00 84 1009.8
20260506031524 23 120 0.0 6.4 0.00 0.00 0.00 84 1009.9
20260506031007 23 116 0.0 1.6 0.00 0.00 0.00 84 1009.7
20260506030513 23 111 0.0 1.6 0.00 0.00 0.00 83 1009.7
20260506030026 23 85 0.0 1.6 0.00 0.00 0.00 83 1009.7
20260506025506 23 56 0.0 1.6 0.00 0.00 0.00 82 1009.6
20260506025010 23 56 0.0 3.2 0.00 0.00 0.00 82 1009.4
20260506024530 23 128 1.6 3.2 0.00 0.00 0.00 82 1009.4
20260506024011 23 142 0.0 3.2 0.00 0.00 0.00 81 1009.4
20260506023508 23 123 0.0 1.6 0.00 0.00 0.00 81 1009.4
20260506023031 23 275 0.0 1.6 0.00 0.00 0.00 80 1009.3
20260506022509 24 110 0.0 3.2 0.00 0.00 0.00 80 1009.1
20260506022012 24 147 0.0 4.8 0.00 0.00 0.00 80 1009.0
20260506021531 24 140 1.6 4.8 0.00 0.00 0.00 80 1009.0
20260506021008 24 143 0.0 3.2 0.00 0.00 0.00 80 1008.9
20260506020507 23 172 1.6 3.2 0.00 0.00 0.00 80 1008.8
20260506020031 23 115 0.0 3.2 0.00 0.00 0.00 79 1008.7
20260506015510 24 199 0.0 3.2 0.00 0.00 0.00 79 1008.5
20260506015014 24 97 0.0 1.6 0.00 0.00 0.00 79 1008.5
20260506014526 24 223 0.0 4.8 0.00 0.00 0.00 78 1008.3
20260506014009 24 209 1.6 4.8 0.00 0.00 0.00 78 1008.1
20260506013512 24 222 1.6 4.8 0.00 0.00 0.00 78 1008.2
20260506013028 25 125 0.0 4.8 0.00 0.00 0.00 77 1008.1
20260506012507 25 157 1.6 3.2 0.00 0.00 0.00 77 1008.0
20260506012008 25 248 1.6 6.4 0.00 0.00 0.00 77 1007.9
20260506011531 25 163 1.6 6.4 0.00 0.00 0.00 76 1007.8
20260506011012 25 120 1.6 4.8 0.00 0.00 0.00 76 1007.8
20260506010513 25 210 1.6 6.4 0.00 0.00 0.00 76 1007.9
20260506010038 25 133 1.6 6.4 0.00 0.00 0.00 75 1007.8
20260506005506 26 167 1.6 6.4 0.00 0.00 0.00 75 1007.9
20260506005011 26 167 1.6 8.0 0.00 0.00 0.00 74 1007.8
20260506004526 26 243 3.2 8.0 0.00 0.00 0.00 73 1007.9
20260506004009 26 155 3.2 9.7 0.00 0.00 0.00 73 1008.0
20260506003509 26 159 3.2 9.7 0.00 0.00 0.00 72 1008.0
20260506003026 26 267 3.2 8.0 0.00 0.00 0.00 72 1008.1
20260506002510 26 176 3.2 6.4 0.00 0.00 0.00 72 1008.0
20260506002012 26 214 3.2 9.7 0.00 0.00 0.00 71 1008.0
20260506001528 27 127 1.6 9.7 0.00 0.00 0.00 70 1008.1
20260506001009 27 200 4.8 9.7 0.00 0.00 0.00 70 1008.1
20260506000514 27 192 3.2 12.9 0.00 0.00 0.00 70 1008.1
20260506000017 27 229 3.2 12.9 0.00 0.00 0.00 69 1008.1
20260505235508 27 243 3.2 9.7 0.00 0.00 0.00 69 1008.1
20260505235008 27 174 3.2 9.7 0.00 0.00 0.00 68 1008.1
20260505234533 27 118 1.6 11.3 0.00 0.00 0.00 68 1008.0
20260505234012 27 180 3.2 12.9 0.00 0.00 0.00 68 1008.1
20260505233509 27 227 4.8 12.9 0.00 0.00 0.00 68 1007.9
20260505233033 27 143 4.8 9.7 0.00 0.00 0.00 67 1007.8
20260505232511 27 146 1.6 6.4 0.00 0.00 0.00 67 1007.9
20260505232009 28 321 1.6 11.3 0.00 0.00 0.00 67 1007.9
20260505231531 28 203 3.2 11.3 0.00 0.00 0.00 66 1007.8
20260505231009 27 120 1.6 8.0 0.00 0.00 0.00 66 1007.8
20260505230508 27 271 3.2 8.0 0.00 0.00 0.00 66 1007.8
20260505230016 28 259 1.6 11.3 0.00 0.00 0.00 66 1007.8
20260505225508 27 152 3.2 11.3 0.00 0.00 0.00 67 1007.9
20260505225011 27 111 0.0 8.0 0.00 0.00 0.00 66 1008.0
20260505224520 27 224 3.2 8.0 0.00 0.00 0.00 66 1008.0
20260505224010 28 168 1.6 8.0 0.00 0.00 0.00 65 1008.1
20260505223516 28 235 3.2 8.0 0.00 0.00 0.00 65 1008.1
20260505223023 28 217 3.2 8.0 0.00 0.00 0.00 66 1008.1
20260505222513 28 358 1.6 6.4 0.00 0.00 0.00 64 1008.1
20260505222009 28 87 1.6 6.4 0.00 0.00 0.00 65 1008.1
20260505221526 28 240 3.2 9.7 0.00 0.00 0.00 64 1008.0
20260505221013 28 271 3.2 9.7 0.00 0.00 0.00 65 1008.0
20260505220508 28 269 3.2 9.7 0.00 0.00 0.00 64 1008.1
20260505220028 28 110 1.6 9.7 0.00 0.00 0.00 64 1008.0
20260505215509 28 33 3.2 9.7 0.00 0.00 0.00 63 1008.1
20260505215008 28 203 1.6 8.0 0.00 0.00 0.00 64 1008.1
20260505214532 28 63 1.6 9.7 0.00 0.00 0.00 64 1008.2
20260505214006 28 193 4.8 9.7 0.00 0.00 0.00 63 1008.2
20260505213507 29 169 1.6 9.7 0.00 0.00 0.00 64 1008.2
20260505213022 29 257 3.2 9.7 0.00 0.00 0.00 62 1008.2
20260505212515 29 61 3.2 9.7 0.00 0.00 0.00 64 1008.3
20260505212012 28 96 3.2 11.3 0.00 0.00 0.00 64 1008.2
20260505211526 28 170 3.2 12.9 0.00 0.00 0.00 64 1008.3
20260505211009 28 169 4.8 12.9 0.00 0.00 0.00 63 1008.3
20260505210510 29 265 3.2 12.9 0.00 0.00 0.00 62 1008.3
20260505210026 29 136 1.6 12.9 0.00 0.00 0.00 63 1008.3
20260505205510 29 174 3.2 16.1 0.00 0.00 0.00 63 1008.6
20260505205012 28 107 4.8 16.1 0.00 0.00 0.00 64 1008.5
20260505204529 28 155 3.2 14.5 0.00 0.00 0.00 63 1008.5
20260505204015 28 2 3.2 14.5 0.00 0.00 0.00 64 1008.5
20260505203511 28 103 3.2 14.5 0.00 0.00 0.00 66 1008.6
20260505203030 28 148 3.2 14.5 0.00 0.00 0.00 65 1008.7
20260505202506 28 200 4.8 17.7 0.00 0.00 0.00 66 1008.7
20260505202006 28 129 4.8 17.7 0.00 0.00 0.00 66 1008.9
20260505201528 28 117 4.8 19.3 0.00 0.00 0.00 65 1009.0
20260505201007 28 191 6.4 19.3 0.00 0.00 0.00 65 1008.9
20260505200511 28 245 3.2 14.5 0.00 0.00 0.00 68 1009.0
20260505200025 28 162 4.8 9.7 0.00 0.00 0.00 66 1009.1
20260505195513 27 153 3.2 11.3 0.00 0.00 0.00 67 1009.2
20260505195009 27 16 1.6 14.5 0.00 0.00 0.00 68 1009.3
20260505194531 27 230 4.8 14.5 0.00 0.00 0.00 69 1009.3
20260505194014 27 134 4.8 11.3 0.00 0.00 0.00 68 1009.4
20260505193509 27 191 4.8 9.7 0.00 0.00 0.00 67 1009.3
20260505193025 27 165 4.8 11.3 0.00 0.00 0.00 68 1009.3
20260505192510 27 300 3.2 11.3 0.00 0.00 0.00 69 1009.4
20260505192010 27 207 6.4 12.9 0.00 0.00 0.00 69 1009.4
20260505191522 27 176 3.2 12.9 0.00 0.00 0.00 68 1009.5
20260505191010 27 237 4.8 9.7 0.00 0.00 0.00 69 1009.5
20260505190510 26 110 3.2 17.7 0.00 0.00 0.00 69 1009.6
20260505190024 26 334 6.4 17.7 0.00 0.00 0.00 71 1009.6
20260505185510 26 160 6.4 17.7 0.00 0.00 0.00 70 1009.6
20260505185012 26 224 3.2 17.7 0.00 0.00 0.00 70 1009.8
20260505184527 26 214 4.8 16.1 0.00 0.00 0.00 70 1010.0
20260505184009 26 193 4.8 14.5 0.00 0.00 0.00 71 1010.1
20260505183508 26 186 1.6 9.7 0.00 0.00 0.00 72 1010.1
20260505183026 26 349 3.2 11.3 0.00 0.00 0.00 71 1010.3
20260505182517 26 203 3.2 11.3 0.00 0.00 0.00 72 1010.3
20260505182012 26 122 3.2 8.0 0.00 0.00 0.00 75 1010.3
20260505181527 25 307 3.2 9.7 0.00 0.00 0.00 77 1010.4
20260505181011 25 278 1.6 9.7 0.00 0.00 0.00 76 1010.5
20260505180510 25 246 1.6 9.7 0.00 0.00 0.00 76 1010.5
20260505180043 24 223 3.2 8.0 0.00 0.00 0.00 78 1010.6
20260505175511 24 314 3.2 8.0 0.00 0.00 0.00 79 1010.8
20260505175008 23 229 1.6 9.7 0.00 0.00 0.00 79 1010.7
20260505174547 23 266 3.2 9.7 0.00 0.00 0.00 81 1010.7
20260505174009 23 233 1.6 8.0 0.00 0.00 0.00 81 1010.8
20260505173510 23 340 3.2 8.0 0.00 0.00 0.00 81 1010.7
20260505173033 23 208 3.2 11.3 0.00 0.00 0.00 81 1010.9
20260505172511 23 193 4.8 11.3 0.00 0.00 0.00 82 1010.8
20260505172012 22 210 1.6 8.0 0.00 0.00 0.00 82 1010.9
20260505171528 23 239 1.6 8.0 0.00 0.00 0.00 83 1010.9
20260505171011 22 323 0.0 8.0 0.00 0.00 0.00 84 1011.0
20260505170510 22 227 1.6 9.7 0.00 0.00 0.00 85 1010.9
20260505170028 22 248 1.6 9.7 0.00 0.00 0.00 85 1010.9
20260505165513 22 257 1.6 6.4 0.00 0.00 0.00 86 1010.9
20260505165009 22 110 0.0 8.0 0.00 0.00 0.00 86 1010.7
20260505164524 21 179 1.6 8.0 0.00 0.00 0.00 87 1010.7
20260505164009 21 167 3.2 8.0 0.00 0.00 0.00 87 1010.8
20260505163507 21 158 1.6 6.4 0.00 0.00 0.00 88 1010.8
20260505163025 21 178 1.6 6.4 0.00 0.00 0.00 89 1010.9
20260505162509 21 296 1.6 9.7 0.00 0.00 0.00 89 1010.8
20260505162010 21 117 1.6 11.3 0.00 0.00 0.00 90 1010.7
20260505161526 20 147 3.2 11.3 0.00 0.00 0.00 90 1010.7
20260505161011 20 280 1.6 9.7 0.00 0.00 0.00 91 1010.6
20260505160510 20 276 3.2 11.3 0.00 0.00 0.00 92 1010.6